Location: Brantley
(31.5822°N, 86.2569°W)
Time: 05:00:33
(UTC+00:00)

Vanguard 3 - Pass Details

Date: 23 February 2026
Orbit: 507 x 3205 km, 33.3° (Epoch: 5 March)

Event Time Altitude Azimuth Distance (km) Brightness Sun altitude
Rises 19:19:35 0° 239° (WSW) 7,034 12.5 44.5°
Reaches altitude 10° 19:24:40 10° 238° (WSW) 5,826 12.4 43.9°
Maximum altitude 19:41:27 70° 159° (SSE) 2,234 10.3 42.0°
Drops below altitude 10° 19:51:15 10° 78° (ENE) 3,592 10.2 40.7°
Sets 19:53:39 0° 76° (ENE) 4,288 10.5 40.4°
